{"data":{"norad_id":82448,"epoch":"2026-05-23T04:46:25.734144Z","epoch_age_seconds":227362,"freshness":"STALE","line1":"1 82448U          26143.19890896  .00005126  00000+0  35035-3 0  9994","line2":"2 82448  85.8716 112.9014 0009647  43.9785 316.2215 15.05891512461326","mean_motion":15.05891512,"eccentricity":0.0009647,"inclination_deg":85.8716,"raan_deg":112.9014,"arg_perigee_deg":43.9785,"mean_anomaly_deg":316.2215,"bstar":0.00035035,"rev_number":46132,"period_min":95.624418394358,"perigee_km":542.08805132701,"apogee_km":555.45282653969,"semimajor_km":6926.9074389333,"source":"CELESTRAK","updated_at":"2026-05-25T13:38:11.189042Z"}}